This is the latest recevied weather packets stored in our database for station/object KC0UFP. If no packets are shown the sender has not sent any weather packets the latest 10 day(s).
| Time | Temp. | Humidity | Pressure | Rain* | Wind** | Luminosity | Snow |
|---|---|---|---|---|---|---|---|
| 1777352309 | 17.78° C | 99% | 1011.5 hPa | 15.49 mm | - | 0 W/m² | - |
| 1777352007 | 18.33° C | 99% | 1010.3 hPa | 14.99 mm | - | 0 W/m² | - |
| 1777351704 | 18.33° C | 99% | 1011.3 hPa | 6.6 mm | - | 0 W/m² | - |
| 1777351100 | 17.78° C | 99% | 1008.5 hPa | 11.94 mm | - | 0 W/m² | - |
| 1777350799 | 17.78° C | 99% | 1009.2 hPa | 26.92 mm | - | 0 W/m² | - |
| 1777350493 | 17.78° C | 99% | 1010.2 hPa | 44.45 mm | - | 0 W/m² | - |
| 1777350192 | 18.33° C | 98% | 1010.6 hPa | 25.91 mm | - | 0 W/m² | - |
| 1777349888 | 21.11° C | 85% | 1011 hPa | 0 mm | - | 0 W/m² | - |
| 1777349585 | 25.56° C | 84% | 1009 hPa | 0 mm | - | 0 W/m² | - |
| 1777349283 | 25.56° C | 84% | 1009.4 hPa | 0 mm | - | 0 W/m² | - |
| 1777348981 | 25.56° C | 84% | 1009.4 hPa | 0 mm | - | 0 W/m² | - |
| 1777348678 | 25.56° C | 84% | 1009.5 hPa | 0 mm | - | 0 W/m² | - |
| 1777348375 | 25.56° C | 84% | 1009.9 hPa | 0 mm | - | 0 W/m² | - |
| 1777348073 | 25.56° C | 84% | 1009.4 hPa | 0 mm | - | 0 W/m² | - |
| 1777347771 | 25.56° C | 83% | 1009.5 hPa | 0 mm | - | 0 W/m² | - |
| 1777347469 | 25.56° C | 83% | 1009.4 hPa | 0 mm | - | 0 W/m² | - |
| 1777347168 | 25.56° C | 83% | 1009.3 hPa | 0 mm | - | 0 W/m² | - |
| 1777346865 | 25.56° C | 83% | 1008.7 hPa | 0 mm | - | 0 W/m² | - |
| 1777346259 | 25.56° C | 83% | 1008.7 hPa | 0 mm | - | 0 W/m² | - |
| 1777345956 | 26.11° C | 82% | 1008.5 hPa | 0 mm | - | 0 W/m² | - |
| 1777345653 | 26.11° C | 82% | 1008.3 hPa | 0 mm | - | 0 W/m² | - |
| 1777345349 | 26.11° C | 82% | 1008.3 hPa | 0 mm | - | 0 W/m² | - |
| 1777345046 | 26.11° C | 82% | 1008.6 hPa | 0 mm | - | 0 W/m² | - |
| 1777344742 | 26.11° C | 82% | 1008.7 hPa | 0 mm | - | 0 W/m² | - |
| 1777344438 | 26.11° C | 81% | 1009 hPa | 0 mm | - | 0 W/m² | - |
* Rain latest hour (hover to see other rain measurements)
** Current wind speed in m/s (hover to see current wind gust speed)